Time,TemperatureF,DewpointF,PressureIn,WindDirection,WindDirectionDegrees,WindSpeedMPH,WindSpeedGustMPH,Humidity,HourlyPrecipIn,Conditions,Clouds,dailyrainin,SoftwareType,DateUTC
2013-11-14 00:00:00,54.7,49.3,30.24,NNE,26,3.0,15.0,82,0.00,,,0.00,Weather View 32 v70,2013-11-14 05:00:00,
2013-11-14 00:01:00,54.7,49.3,30.24,NE,36,1.0,15.0,82,0.00,,,0.00,Weather View 32 v70,2013-11-14 05:01:00,
2013-11-14 00:07:00,54.7,49.3,30.24,NE,39,4.0,15.0,82,0.00,,,0.00,Weather View 32 v70,2013-11-14 05:07:00,
2013-11-14 00:12:00,54.6,49.2,30.23,NNE,30,2.0,14.0,82,0.00,,,0.00,Weather View 32 v70,2013-11-14 05:12:00,
2013-11-14 00:17:00,54.6,49.2,30.23,NE,43,0.0,14.0,82,0.00,,,0.00,Weather View 32 v70,2013-11-14 05:17:00,
2013-11-14 00:22:00,54.6,49.5,30.24,NNW,348,2.0,14.0,83,0.00,,,0.00,Weather View 32 v70,2013-11-14 05:22:00,
2013-11-14 00:27:00,54.6,49.2,30.24,NNE,30,3.0,14.0,82,0.00,,,0.00,Weather View 32 v70,2013-11-14 05:27:00,
2013-11-14 00:32:00,54.6,49.2,30.24,ENE,63,5.0,14.0,82,0.00,,,0.00,Weather View 32 v70,2013-11-14 05:32:00,
2013-11-14 00:37:00,54.6,49.2,30.24,ENE,61,2.0,14.0,82,0.00,,,0.00,Weather View 32 v70,2013-11-14 05:37:00,
2013-11-14 00:42:00,54.5,49.4,30.23,NE,51,6.0,14.0,83,0.00,,,0.00,Weather View 32 v70,2013-11-14 05:42:00,
2013-11-14 00:47:00,54.5,49.4,30.23,NE,50,6.0,14.0,83,0.00,,,0.00,Weather View 32 v70,2013-11-14 05:47:00,
2013-11-14 00:52:00,54.4,49.3,30.23,NNE,27,3.0,14.0,83,0.00,,,0.00,Weather View 32 v70,2013-11-14 05:52:00,
2013-11-14 00:57:00,54.3,49.2,30.23,NNE,22,0.0,14.0,83,0.00,,,0.00,Weather View 32 v70,2013-11-14 05:57:00,
2013-11-14 01:00:00,54.3,49.2,30.23,NE,52,4.0,14.0,83,0.00,,,0.00,Weather View 32 v70,2013-11-14 06:00:00,
2013-11-14 01:02:00,54.3,49.2,30.23,NE,45,3.0,14.0,83,0.00,,,0.00,Weather View 32 v70,2013-11-14 06:02:00,
2013-11-14 01:07:00,54.2,49.1,30.23,NE,39,4.0,14.0,83,0.00,,,0.00,Weather View 32 v70,2013-11-14 06:07:00,
2013-11-14 01:12:00,54.2,49.5,30.23,North,11,1.0,14.0,84,0.00,,,0.00,Weather View 32 v70,2013-11-14 06:12:00,
2013-11-14 01:17:00,54.2,49.1,30.22,East,86,0.0,10.0,83,0.00,,,0.00,Weather View 32 v70,2013-11-14 06:17:00,
2013-11-14 01:22:00,54.2,49.5,30.22,NE,54,6.0,10.0,84,0.00,,,0.00,Weather View 32 v70,2013-11-14 06:22:00,
2013-11-14 01:27:00,54.2,49.5,30.22,North,360,3.0,10.0,84,0.00,,,0.00,Weather View 32 v70,2013-11-14 06:27:00,
2013-11-14 01:32:00,54.2,49.5,30.22,NNE,23,2.0,10.0,84,0.00,,,0.00,Weather View 32 v70,2013-11-14 06:32:00,
2013-11-14 01:37:00,54.1,49.4,30.22,NE,40,2.0,10.0,84,0.00,,,0.00,Weather View 32 v70,2013-11-14 06:37:00,
2013-11-14 01:42:00,54.1,49.4,30.22,NE,54,1.0,10.0,84,0.00,,,0.00,Weather View 32 v70,2013-11-14 06:42:00,
2013-11-14 01:47:00,54.2,49.5,30.22,NNE,26,1.0,10.0,84,0.00,,,0.00,Weather View 32 v70,2013-11-14 06:47:00,
2013-11-14 01:52:00,54.1,49.4,30.22,NNE,18,0.0,10.0,84,0.00,,,0.00,Weather View 32 v70,2013-11-14 06:52:00,
2013-11-14 01:57:00,54.2,49.5,30.21,NE,46,0.0,10.0,84,0.00,,,0.00,Weather View 32 v70,2013-11-14 06:57:00,
2013-11-14 02:00:00,54.1,49.4,30.21,North,9,4.0,10.0,84,0.00,,,0.00,Weather View 32 v70,2013-11-14 07:00:00,
2013-11-14 02:02:00,54.2,49.5,30.20,NNE,33,2.0,10.0,84,0.00,,,0.00,Weather View 32 v70,2013-11-14 07:02:00,
2013-11-14 02:07:00,54.2,49.5,30.20,East,92,0.0,10.0,84,0.00,,,0.00,Weather View 32 v70,2013-11-14 07:07:00,
2013-11-14 02:12:00,54.2,49.5,30.20,NE,43,5.0,10.0,84,0.00,,,0.00,Weather View 32 v70,2013-11-14 07:12:00,
2013-11-14 02:17:00,54.4,49.7,30.20,ENE,59,3.0,10.0,84,0.00,,,0.00,Weather View 32 v70,2013-11-14 07:17:00,
2013-11-14 02:22:00,54.4,49.7,30.20,NNE,32,4.0,10.0,84,0.00,,,0.00,Weather View 32 v70,2013-11-14 07:22:00,
2013-11-14 02:27:00,54.4,49.7,30.21,NNE,22,2.0,10.0,84,0.00,,,0.00,Weather View 32 v70,2013-11-14 07:27:00,
2013-11-14 02:32:00,54.2,49.5,30.21,NE,43,2.0,10.0,84,0.00,,,0.00,Weather View 32 v70,2013-11-14 07:32:00,
2013-11-14 02:37:00,54.1,49.4,30.21,NE,42,0.0,10.0,84,0.00,,,0.00,Weather View 32 v70,2013-11-14 07:37:00,
2013-11-14 02:42:00,54.0,49.3,30.21,NE,50,0.0,10.0,84,0.00,,,0.00,Weather View 32 v70,2013-11-14 07:42:00,
2013-11-14 02:47:00,53.9,49.5,30.21,NE,37,3.0,10.0,85,0.00,,,0.00,Weather View 32 v70,2013-11-14 07:47:00,
2013-11-14 02:52:00,53.9,49.5,30.21,East,96,1.0,10.0,85,0.00,,,0.00,Weather View 32 v70,2013-11-14 07:52:00,
2013-11-14 02:57:00,53.9,49.5,30.21,NE,51,5.0,10.0,85,0.00,,,0.00,Weather View 32 v70,2013-11-14 07:57:00,
2013-11-14 03:00:00,53.9,49.5,30.21,NE,49,5.0,10.0,85,0.00,,,0.00,Weather View 32 v70,2013-11-14 08:00:00,
2013-11-14 03:02:00,53.9,49.5,30.21,NE,45,4.0,10.0,85,0.00,,,0.00,Weather View 32 v70,2013-11-14 08:02:00,
2013-11-14 03:07:00,53.8,49.4,30.21,NNE,26,0.0,10.0,85,0.00,,,0.00,Weather View 32 v70,2013-11-14 08:07:00,
2013-11-14 03:12:00,53.8,49.4,30.21,NE,35,3.0,10.0,85,0.00,,,0.00,Weather View 32 v70,2013-11-14 08:12:00,
2013-11-14 03:17:00,53.8,49.4,30.22,NE,39,0.0,10.0,85,0.00,,,0.00,Weather View 32 v70,2013-11-14 08:17:00,
2013-11-14 03:22:00,53.7,49.3,30.22,NE,44,4.0,10.0,85,0.00,,,0.00,Weather View 32 v70,2013-11-14 08:22:00,
2013-11-14 03:27:00,53.7,49.3,30.21,NE,34,0.0,10.0,85,0.00,,,0.00,Weather View 32 v70,2013-11-14 08:27:00,
2013-11-14 03:32:00,53.7,49.3,30.21,NNE,33,0.0,10.0,85,0.00,,,0.00,Weather View 32 v70,2013-11-14 08:32:00,
2013-11-14 03:37:00,53.7,49.3,30.21,ENE,59,3.0,10.0,85,0.00,,,0.00,Weather View 32 v70,2013-11-14 08:37:00,
2013-11-14 03:42:00,53.7,49.3,30.21,NE,40,3.0,10.0,85,0.00,,,0.00,Weather View 32 v70,2013-11-14 08:42:00,
2013-11-14 03:47:00,53.7,49.3,30.21,NE,37,0.0,10.0,85,0.00,,,0.00,Weather View 32 v70,2013-11-14 08:47:00,
2013-11-14 03:52:00,53.6,49.5,30.21,ENE,57,0.0,10.0,86,0.00,,,0.00,Weather View 32 v70,2013-11-14 08:52:00,
2013-11-14 03:57:00,53.6,49.5,30.21,NE,38,2.0,9.0,86,0.00,,,0.00,Weather View 32 v70,2013-11-14 08:57:00,
2013-11-14 04:00:00,53.6,49.5,30.21,NE,51,3.0,9.0,86,0.00,,,0.00,Weather View 32 v70,2013-11-14 09:00:00,
2013-11-14 04:02:00,53.6,49.5,30.21,NE,44,3.0,8.0,86,0.00,,,0.00,Weather View 32 v70,2013-11-14 09:02:00,
2013-11-14 04:07:00,53.6,49.5,30.21,ENE,62,0.0,8.0,86,0.00,,,0.00,Weather View 32 v70,2013-11-14 09:07:00,
2013-11-14 04:12:00,53.6,49.5,30.21,ENE,60,3.0,8.0,86,0.00,,,0.00,Weather View 32 v70,2013-11-14 09:12:00,
2013-11-14 04:17:00,53.5,49.4,30.21,NE,34,6.0,8.0,86,0.00,,,0.00,Weather View 32 v70,2013-11-14 09:17:00,
2013-11-14 07:56:00,56.6,51.2,30.26,NE,38,2.0,3.0,82,0.00,,,0.00,Weather View 32 v70,2013-11-14 12:56:00,
2013-11-14 08:01:00,56.8,51.4,30.26,NE,44,0.0,6.0,82,0.00,,,0.00,Weather View 32 v70,2013-11-14 13:01:00,
2013-11-14 08:06:00,57.3,51.8,30.26,ENE,78,2.0,8.0,82,0.00,,,0.00,Weather View 32 v70,2013-11-14 13:06:00,
2013-11-14 08:11:00,57.8,52.0,30.26,NE,53,6.0,8.0,81,0.00,,,0.00,Weather View 32 v70,2013-11-14 13:11:00,
2013-11-14 08:17:00,58.2,52.4,30.26,ENE,58,2.0,8.0,81,0.00,,,0.00,Weather View 32 v70,2013-11-14 13:17:00,
2013-11-14 08:22:00,58.5,52.3,30.25,NE,55,2.0,8.0,80,0.00,,,0.00,Weather View 32 v70,2013-11-14 13:22:00,
2013-11-14 08:27:00,59.0,52.5,30.25,NE,49,0.0,9.0,79,0.00,,,0.00,Weather View 32 v70,2013-11-14 13:27:00,
2013-11-14 08:30:00,59.3,52.8,30.26,NE,37,1.0,9.0,79,0.00,,,0.00,Weather View 32 v70,2013-11-14 13:30:00,
2013-11-14 08:32:00,59.4,52.9,30.26,ENE,57,2.0,9.0,79,0.00,,,0.00,Weather View 32 v70,2013-11-14 13:32:00,
2013-11-14 08:37:00,60.0,53.1,30.26,North,11,4.0,9.0,78,0.00,,,0.00,Weather View 32 v70,2013-11-14 13:37:00,
2013-11-14 08:42:00,60.1,53.2,30.26,NNE,30,0.0,11.0,78,0.00,,,0.00,Weather View 32 v70,2013-11-14 13:42:00,
2013-11-14 08:47:00,60.4,53.1,30.26,NE,38,5.0,11.0,77,0.00,,,0.00,Weather View 32 v70,2013-11-14 13:47:00,
2013-11-14 08:52:00,60.8,53.5,30.26,ESE,116,3.0,11.0,77,0.00,,,0.00,Weather View 32 v70,2013-11-14 13:52:00,
2013-11-14 08:57:00,61.1,53.8,30.26,ESE,113,4.0,11.0,77,0.00,,,0.00,Weather View 32 v70,2013-11-14 13:57:00,
2013-11-14 09:02:00,61.2,53.6,30.26,East,82,2.0,11.0,76,0.00,,,0.00,Weather View 32 v70,2013-11-14 14:02:00,
2013-11-14 09:07:00,61.6,54.3,30.26,NNE,33,2.0,11.0,77,0.00,,,0.00,Weather View 32 v70,2013-11-14 14:07:00,
2013-11-14 09:12:00,62.3,54.3,30.26,NE,54,7.0,11.0,75,0.00,,,0.00,Weather View 32 v70,2013-11-14 14:12:00,
2013-11-14 09:17:00,62.7,54.3,30.26,NE,40,4.0,11.0,74,0.00,,,0.00,Weather View 32 v70,2013-11-14 14:17:00,
2013-11-14 09:22:00,63.2,54.4,30.26,East,84,2.0,11.0,73,0.00,,,0.00,Weather View 32 v70,2013-11-14 14:22:00,
2013-11-14 09:27:00,63.9,54.7,30.26,ENE,59,3.0,11.0,72,0.00,,,0.00,Weather View 32 v70,2013-11-14 14:27:00,
2013-11-14 09:30:00,64.1,54.5,30.26,NE,49,3.0,11.0,71,0.00,,,0.00,Weather View 32 v70,2013-11-14 14:30:00,
2013-11-14 09:32:00,64.3,54.7,30.26,ENE,58,3.0,11.0,71,0.00,,,0.00,Weather View 32 v70,2013-11-14 14:32:00,
2013-11-14 09:37:00,64.7,54.3,30.26,NE,56,1.0,12.0,69,0.00,,,0.00,Weather View 32 v70,2013-11-14 14:37:00,
2013-11-14 09:42:00,65.1,54.6,30.26,NE,46,5.0,12.0,69,0.00,,,0.00,Weather View 32 v70,2013-11-14 14:42:00,
2013-11-14 09:47:00,65.6,55.1,30.26,NE,34,2.0,12.0,69,0.00,,,0.00,Weather View 32 v70,2013-11-14 14:47:00,
2013-11-14 09:52:00,66.0,55.1,30.25,ENE,62,0.0,13.0,68,0.00,,,0.00,Weather View 32 v70,2013-11-14 14:52:00,
2013-11-14 09:57:00,66.6,55.3,30.25,NE,36,1.0,13.0,67,0.00,,,0.00,Weather View 32 v70,2013-11-14 14:57:00,
2013-11-14 10:02:00,67.1,55.3,30.26,NE,43,2.0,15.0,66,0.00,,,0.00,Weather View 32 v70,2013-11-14 15:02:00,
2013-11-14 10:07:00,67.8,56.0,30.26,ENE,57,1.0,15.0,66,0.00,,,0.00,Weather View 32 v70,2013-11-14 15:07:00,
2013-11-14 10:12:00,68.3,55.6,30.25,ENE,71,4.0,15.0,64,0.00,,,0.00,Weather View 32 v70,2013-11-14 15:12:00,
2013-11-14 10:17:00,68.4,55.7,30.25,NNE,23,6.0,15.0,64,0.00,,,0.00,Weather View 32 v70,2013-11-14 15:17:00,
2013-11-14 10:22:00,68.6,55.9,30.26,SE,142,7.0,15.0,64,0.00,,,0.00,Weather View 32 v70,2013-11-14 15:22:00,
2013-11-14 10:27:00,69.0,56.3,30.25,East,85,5.0,15.0,64,0.00,,,0.00,Weather View 32 v70,2013-11-14 15:27:00,
2013-11-14 10:30:00,69.5,57.2,30.25,ESE,117,0.0,15.0,65,0.00,,,0.00,Weather View 32 v70,2013-11-14 15:30:00,
2013-11-14 10:32:00,69.9,57.1,30.25,ESE,107,2.0,15.0,64,0.00,,,0.00,Weather View 32 v70,2013-11-14 15:32:00,
2013-11-14 10:37:00,70.7,57.0,30.25,SE,132,7.0,15.0,62,0.00,,,0.00,Weather View 32 v70,2013-11-14 15:37:00,
2013-11-14 10:42:00,70.9,57.6,30.24,ESE,117,4.0,15.0,63,0.00,,,0.00,Weather View 32 v70,2013-11-14 15:42:00,
2013-11-14 10:47:00,70.8,57.1,30.24,East,98,9.0,15.0,62,0.00,,,0.00,Weather View 32 v70,2013-11-14 15:47:00,
2013-11-14 10:52:00,71.0,57.3,30.24,ESE,105,7.0,15.0,62,0.00,,,0.00,Weather View 32 v70,2013-11-14 15:52:00,
2013-11-14 10:57:00,71.0,56.8,30.24,SE,138,4.0,15.0,61,0.00,,,0.00,Weather View 32 v70,2013-11-14 15:57:00,
2013-11-14 11:02:00,71.0,57.3,30.24,ENE,57,1.0,14.0,62,0.00,,,0.00,Weather View 32 v70,2013-11-14 16:02:00,
2013-11-14 11:07:00,71.2,57.0,30.24,East,100,7.0,17.0,61,0.00,,,0.00,Weather View 32 v70,2013-11-14 16:07:00,
2013-11-14 11:12:00,71.4,57.2,30.24,NNE,24,2.0,17.0,61,0.00,,,0.00,Weather View 32 v70,2013-11-14 16:12:00,
2013-11-14 11:17:00,71.7,57.5,30.24,SE,143,7.0,17.0,61,0.00,,,0.00,Weather View 32 v70,2013-11-14 16:17:00,
2013-11-14 11:22:00,72.1,57.4,30.24,East,80,9.0,17.0,60,0.00,,,0.00,Weather View 32 v70,2013-11-14 16:22:00,
2013-11-14 11:27:00,72.2,57.0,30.24,East,94,9.0,17.0,59,0.00,,,0.00,Weather View 32 v70,2013-11-14 16:27:00,
2013-11-14 11:30:00,72.3,57.1,30.23,NE,56,1.0,17.0,59,0.00,,,0.00,Weather View 32 v70,2013-11-14 16:30:00,
2013-11-14 11:32:00,72.6,57.4,30.23,East,82,6.0,17.0,59,0.00,,,0.00,Weather View 32 v70,2013-11-14 16:32:00,
2013-11-14 11:37:00,73.0,57.3,30.23,SE,128,6.0,17.0,58,0.00,,,0.00,Weather View 32 v70,2013-11-14 16:37:00,
2013-11-14 11:42:00,73.4,56.2,30.23,SSE,149,5.0,17.0,55,0.00,,,0.00,Weather View 32 v70,2013-11-14 16:42:00,
2013-11-14 11:47:00,73.6,56.9,30.22,SE,129,6.0,17.0,56,0.00,,,0.00,Weather View 32 v70,2013-11-14 16:47:00,
2013-11-14 11:52:00,73.9,57.2,30.22,East,91,7.0,17.0,56,0.00,,,0.00,Weather View 32 v70,2013-11-14 16:52:00,
2013-11-14 11:57:00,74.2,57.4,30.22,ESE,110,4.0,17.0,56,0.00,,,0.00,Weather View 32 v70,2013-11-14 16:57:00,
2013-11-14 12:02:00,74.2,57.4,30.22,SE,142,8.0,17.0,56,0.00,,,0.00,Weather View 32 v70,2013-11-14 17:02:00,
2013-11-14 12:07:00,74.4,57.6,30.22,ESE,116,5.0,15.0,56,0.00,,,0.00,Weather View 32 v70,2013-11-14 17:07:00,
2013-11-14 12:12:00,74.6,57.8,30.21,ESE,111,4.0,17.0,56,0.00,,,0.00,Weather View 32 v70,2013-11-14 17:12:00,
2013-11-14 12:17:00,74.7,57.9,30.21,East,90,8.0,17.0,56,0.00,,,0.00,Weather View 32 v70,2013-11-14 17:17:00,
2013-11-14 12:22:00,74.9,57.6,30.21,SE,139,7.0,17.0,55,0.00,,,0.00,Weather View 32 v70,2013-11-14 17:22:00,
2013-11-14 12:27:00,75.0,57.7,30.20,SE,129,6.0,17.0,55,0.00,,,0.00,Weather View 32 v70,2013-11-14 17:27:00,
2013-11-14 12:32:00,75.1,58.3,30.20,East,87,9.0,17.0,56,0.00,,,0.00,Weather View 32 v70,2013-11-14 17:32:00,
2013-11-14 12:37:00,74.8,58.5,30.19,East,86,6.0,17.0,57,0.00,,,0.00,Weather View 32 v70,2013-11-14 17:37:00,
2013-11-14 12:42:00,74.6,58.3,30.19,ENE,77,4.0,17.0,57,0.00,,,0.00,Weather View 32 v70,2013-11-14 17:42:00,
2013-11-14 12:47:00,74.2,58.4,30.18,ENE,69,4.0,17.0,58,0.00,,,0.00,Weather View 32 v70,2013-11-14 17:47:00,
2013-11-14 12:52:00,74.5,59.2,30.18,ESE,116,4.0,17.0,59,0.00,,,0.00,Weather View 32 v70,2013-11-14 17:52:00,
2013-11-14 12:57:00,75.3,59.0,30.17,SE,132,7.0,17.0,57,0.00,,,0.00,Weather View 32 v70,2013-11-14 17:57:00,
2013-11-14 13:02:00,75.5,58.1,30.17,East,97,5.0,17.0,55,0.00,,,0.00,Weather View 32 v70,2013-11-14 18:02:00,
2013-11-14 13:07:00,75.9,59.0,30.17,ESE,114,4.0,17.0,56,0.00,,,0.00,Weather View 32 v70,2013-11-14 18:07:00,
2013-11-14 13:12:00,75.7,58.8,30.18,SE,128,7.0,16.0,56,0.00,,,0.00,Weather View 32 v70,2013-11-14 18:12:00,
2013-11-14 13:17:00,75.6,57.2,30.17,SE,138,6.0,16.0,53,0.00,,,0.00,Weather View 32 v70,2013-11-14 18:17:00,
2013-11-14 13:22:00,75.8,57.9,30.17,East,82,5.0,16.0,54,0.00,,,0.00,Weather View 32 v70,2013-11-14 18:22:00,
2013-11-14 13:27:00,76.2,58.3,30.17,ENE,61,7.0,16.0,54,0.00,,,0.00,Weather View 32 v70,2013-11-14 18:27:00,
2013-11-14 13:32:00,76.6,58.1,30.17,SE,130,7.0,16.0,53,0.00,,,0.00,Weather View 32 v70,2013-11-14 18:32:00,
2013-11-14 13:37:00,76.4,57.9,30.17,SE,140,7.0,16.0,53,0.00,,,0.00,Weather View 32 v70,2013-11-14 18:37:00,
2013-11-14 13:42:00,75.8,58.4,30.17,SE,124,0.0,15.0,55,0.00,,,0.00,Weather View 32 v70,2013-11-14 18:42:00,
2013-11-14 13:47:00,75.9,58.5,30.17,East,96,5.0,15.0,55,0.00,,,0.00,Weather View 32 v70,2013-11-14 18:47:00,
2013-11-14 13:52:00,75.8,58.9,30.16,East,95,6.0,15.0,56,0.00,,,0.00,Weather View 32 v70,2013-11-14 18:52:00,
2013-11-14 13:58:00,75.8,58.9,30.16,ENE,71,2.0,15.0,56,0.00,,,0.00,Weather View 32 v70,2013-11-14 18:58:00,
2013-11-14 14:03:00,75.9,59.0,30.16,NE,45,4.0,15.0,56,0.00,,,0.00,Weather View 32 v70,2013-11-14 19:03:00,
2013-11-14 14:08:00,75.9,59.0,30.16,East,96,8.0,15.0,56,0.00,,,0.00,Weather View 32 v70,2013-11-14 19:08:00,
2013-11-14 14:13:00,76.3,59.4,30.16,NE,35,0.0,15.0,56,0.00,,,0.00,Weather View 32 v70,2013-11-14 19:13:00,
2013-11-14 14:18:00,76.7,59.3,30.16,ESE,104,3.0,15.0,55,0.00,,,0.00,Weather View 32 v70,2013-11-14 19:18:00,
2013-11-14 14:23:00,76.4,58.5,30.15,SE,134,6.0,15.0,54,0.00,,,0.00,Weather View 32 v70,2013-11-14 19:23:00,
2013-11-14 14:28:00,76.4,58.5,30.15,East,80,7.0,15.0,54,0.00,,,0.00,Weather View 32 v70,2013-11-14 19:28:00,
2013-11-14 14:33:00,76.2,57.8,30.15,East,90,6.0,15.0,53,0.00,,,0.00,Weather View 32 v70,2013-11-14 19:33:00,
2013-11-14 14:38:00,76.2,57.8,30.15,East,99,0.0,15.0,53,0.00,,,0.00,Weather View 32 v70,2013-11-14 19:38:00,
2013-11-14 14:43:00,76.2,57.8,30.14,East,81,5.0,15.0,53,0.00,,,0.00,Weather View 32 v70,2013-11-14 19:43:00,
2013-11-14 14:48:00,75.7,57.3,30.15,NE,37,7.0,14.0,53,0.00,,,0.00,Weather View 32 v70,2013-11-14 19:48:00,
2013-11-14 14:53:00,75.6,57.7,30.15,East,97,1.0,14.0,54,0.00,,,0.00,Weather View 32 v70,2013-11-14 19:53:00,
2013-11-14 14:58:00,75.5,58.1,30.15,East,84,1.0,14.0,55,0.00,,,0.00,Weather View 32 v70,2013-11-14 19:58:00,
2013-11-14 15:03:00,75.6,57.7,30.14,ESE,116,4.0,14.0,54,0.00,,,0.00,Weather View 32 v70,2013-11-14 20:03:00,
2013-11-14 15:08:00,75.7,58.3,30.14,East,97,3.0,14.0,55,0.00,,,0.00,Weather View 32 v70,2013-11-14 20:08:00,
2013-11-14 15:13:00,75.8,57.4,30.14,East,98,6.0,14.0,53,0.00,,,0.00,Weather View 32 v70,2013-11-14 20:13:00,
2013-11-14 15:18:00,75.9,57.5,30.14,East,92,1.0,14.0,53,0.00,,,0.00,Weather View 32 v70,2013-11-14 20:18:00,
2013-11-14 15:23:00,76.0,57.6,30.14,SE,131,3.0,14.0,53,0.00,,,0.00,Weather View 32 v70,2013-11-14 20:23:00,
2013-11-14 15:28:00,76.1,57.7,30.14,SE,140,8.0,14.0,53,0.00,,,0.00,Weather View 32 v70,2013-11-14 20:28:00,
2013-11-14 15:33:00,76.0,57.0,30.14,ENE,78,2.0,14.0,52,0.00,,,0.00,Weather View 32 v70,2013-11-14 20:33:00,
2013-11-14 15:38:00,75.6,56.7,30.14,East,96,2.0,14.0,52,0.00,,,0.00,Weather View 32 v70,2013-11-14 20:38:00,
2013-11-14 15:43:00,75.2,56.8,30.15,ENE,70,3.0,14.0,53,0.00,,,0.00,Weather View 32 v70,2013-11-14 20:43:00,
2013-11-14 15:48:00,75.0,57.2,30.14,ENE,69,2.0,13.0,54,0.00,,,0.00,Weather View 32 v70,2013-11-14 20:48:00,
2013-11-14 15:53:00,74.9,57.1,30.14,ESE,110,1.0,13.0,54,0.00,,,0.00,Weather View 32 v70,2013-11-14 20:53:00,
2013-11-14 15:58:00,74.9,57.6,30.14,NE,40,1.0,13.0,55,0.00,,,0.00,Weather View 32 v70,2013-11-14 20:58:00,
2013-11-14 16:03:00,74.8,57.5,30.14,East,87,1.0,13.0,55,0.00,,,0.00,Weather View 32 v70,2013-11-14 21:03:00,
2013-11-14 16:08:00,74.7,57.9,30.14,East,84,2.0,13.0,56,0.00,,,0.00,Weather View 32 v70,2013-11-14 21:08:00,
2013-11-14 16:13:00,74.6,57.8,30.14,SE,128,3.0,13.0,56,0.00,,,0.00,Weather View 32 v70,2013-11-14 21:13:00,
2013-11-14 16:18:00,74.4,57.6,30.14,East,98,2.0,13.0,56,0.00,,,0.00,Weather View 32 v70,2013-11-14 21:18:00,
2013-11-14 16:23:00,74.3,57.5,30.14,East,92,9.0,13.0,56,0.00,,,0.00,Weather View 32 v70,2013-11-14 21:23:00,
2013-11-14 16:29:00,74.2,57.4,30.14,ESE,103,2.0,13.0,56,0.00,,,0.00,Weather View 32 v70,2013-11-14 21:29:00,
2013-11-14 16:33:00,74.1,57.3,30.14,East,101,3.0,13.0,56,0.00,,,0.00,Weather View 32 v70,2013-11-14 21:33:00,
2013-11-14 16:38:00,74.0,57.3,30.14,East,98,3.0,13.0,56,0.00,,,0.00,Weather View 32 v70,2013-11-14 21:38:00,
2013-11-14 16:44:00,73.8,57.6,30.15,East,100,3.0,13.0,57,0.00,,,0.00,Weather View 32 v70,2013-11-14 21:44:00,
2013-11-14 16:49:00,73.7,57.5,30.15,SE,128,3.0,11.0,57,0.00,,,0.00,Weather View 32 v70,2013-11-14 21:49:00,
2013-11-14 16:54:00,73.6,57.9,30.15,SE,130,7.0,11.0,58,0.00,,,0.00,Weather View 32 v70,2013-11-14 21:54:00,
2013-11-14 16:59:00,73.4,58.2,30.14,East,101,0.0,11.0,59,0.00,,,0.00,Weather View 32 v70,2013-11-14 21:59:00,
2013-11-14 17:04:00,73.3,58.1,30.14,ESE,111,9.0,12.0,59,0.00,,,0.00,Weather View 32 v70,2013-11-14 22:04:00,
2013-11-14 17:09:00,73.1,57.9,30.14,ESE,103,5.0,12.0,59,0.00,,,0.00,Weather View 32 v70,2013-11-14 22:09:00,
2013-11-14 17:14:00,72.9,58.2,30.14,SE,130,8.0,13.0,60,0.00,,,0.00,Weather View 32 v70,2013-11-14 22:14:00,
2013-11-14 17:19:00,72.6,58.3,30.15,ESE,120,4.0,13.0,61,0.00,,,0.00,Weather View 32 v70,2013-11-14 22:19:00,
2013-11-14 17:24:00,72.4,58.6,30.14,ESE,113,1.0,13.0,62,0.00,,,0.00,Weather View 32 v70,2013-11-14 22:24:00,
2013-11-14 17:29:00,72.2,58.9,30.14,East,93,3.0,13.0,63,0.00,,,0.00,Weather View 32 v70,2013-11-14 22:29:00,
2013-11-14 17:34:00,71.9,59.0,30.15,ESE,105,4.0,13.0,64,0.00,,,0.00,Weather View 32 v70,2013-11-14 22:34:00,
2013-11-14 17:39:00,71.7,58.8,30.15,SE,142,7.0,15.0,64,0.00,,,0.00,Weather View 32 v70,2013-11-14 22:39:00,
2013-11-14 17:44:00,71.5,58.6,30.15,East,86,0.0,15.0,64,0.00,,,0.00,Weather View 32 v70,2013-11-14 22:44:00,
2013-11-14 17:49:00,71.3,58.5,30.15,SE,132,11.0,15.0,64,0.00,,,0.00,Weather View 32 v70,2013-11-14 22:49:00,
2013-11-14 17:54:00,71.2,57.9,30.15,East,92,0.0,15.0,63,0.00,,,0.00,Weather View 32 v70,2013-11-14 22:54:00,
2013-11-14 17:59:00,71.1,57.8,30.16,East,93,3.0,15.0,63,0.00,,,0.00,Weather View 32 v70,2013-11-14 22:59:00,
2013-11-14 18:04:00,71.0,57.7,30.15,East,98,0.0,15.0,63,0.00,,,0.00,Weather View 32 v70,2013-11-14 23:04:00,
2013-11-14 18:09:00,70.8,58.0,30.15,East,93,5.0,15.0,64,0.00,,,0.00,Weather View 32 v70,2013-11-14 23:09:00,
2013-11-14 18:14:00,70.6,57.8,30.15,ENE,61,2.0,15.0,64,0.00,,,0.00,Weather View 32 v70,2013-11-14 23:14:00,
2013-11-14 18:19:00,70.4,57.6,30.15,East,96,5.0,15.0,64,0.00,,,0.00,Weather View 32 v70,2013-11-14 23:19:00,
2013-11-14 18:24:00,70.2,57.4,30.15,East,90,2.0,15.0,64,0.00,,,0.00,Weather View 32 v70,2013-11-14 23:24:00,
2013-11-14 18:29:00,70.0,57.7,30.15,East,97,6.0,15.0,65,0.00,,,0.00,Weather View 32 v70,2013-11-14 23:29:00,
2013-11-14 18:34:00,69.9,57.6,30.15,ESE,108,1.0,15.0,65,0.00,,,0.00,Weather View 32 v70,2013-11-14 23:34:00,
2013-11-14 18:39:00,69.8,57.5,30.15,East,101,2.0,13.0,65,0.00,,,0.00,Weather View 32 v70,2013-11-14 23:39:00,
2013-11-14 18:44:00,69.7,57.4,30.16,ESE,110,2.0,13.0,65,0.00,,,0.00,Weather View 32 v70,2013-11-14 23:44:00,
2013-11-14 18:49:00,69.5,57.2,30.17,ESE,102,3.0,13.0,65,0.00,,,0.00,Weather View 32 v70,2013-11-14 23:49:00,
2013-11-14 18:54:00,69.5,57.2,30.17,ESE,110,3.0,11.0,65,0.00,,,0.00,Weather View 32 v70,2013-11-14 23:54:00,
2013-11-14 18:59:00,69.3,57.0,30.17,ESE,107,2.0,11.0,65,0.00,,,0.00,Weather View 32 v70,2013-11-14 23:59:00,
2013-11-14 19:04:00,69.2,56.9,30.17,ESE,117,4.0,11.0,65,0.00,,,0.00,Weather View 32 v70,2013-11-15 00:04:00,
2013-11-14 19:09:00,69.1,57.2,30.17,ESE,115,1.0,10.0,66,0.00,,,0.00,Weather View 32 v70,2013-11-15 00:09:00,
2013-11-14 19:14:00,69.0,57.1,30.17,East,101,2.0,9.0,66,0.00,,,0.00,Weather View 32 v70,2013-11-15 00:14:00,
2013-11-14 19:19:00,68.8,56.9,30.17,East,82,0.0,9.0,66,0.00,,,0.00,Weather View 32 v70,2013-11-15 00:19:00,
2013-11-14 19:25:00,68.6,56.8,30.17,East,89,0.0,9.0,66,0.00,,,0.00,Weather View 32 v70,2013-11-15 00:25:00,
2013-11-14 19:30:00,68.5,57.1,30.16,ESE,113,4.0,10.0,67,0.00,,,0.00,Weather View 32 v70,2013-11-15 00:30:00,
2013-11-14 19:35:00,68.4,57.0,30.17,ESE,110,2.0,10.0,67,0.00,,,0.00,Weather View 32 v70,2013-11-15 00:35:00,
2013-11-14 19:40:00,68.2,57.2,30.17,ESE,112,0.0,10.0,68,0.00,,,0.00,Weather View 32 v70,2013-11-15 00:40:00,
2013-11-14 19:45:00,68.1,57.1,30.17,ESE,105,3.0,10.0,68,0.00,,,0.00,Weather View 32 v70,2013-11-15 00:45:00,
2013-11-14 19:50:00,68.0,57.0,30.17,ESE,105,1.0,10.0,68,0.00,,,0.00,Weather View 32 v70,2013-11-15 00:50:00,
2013-11-14 19:55:00,67.8,56.8,30.17,East,92,0.0,10.0,68,0.00,,,0.00,Weather View 32 v70,2013-11-15 00:55:00,
2013-11-14 20:00:00,67.6,57.0,30.17,East,96,1.0,10.0,69,0.00,,,0.00,Weather View 32 v70,2013-11-15 01:00:00,
2013-11-14 20:05:00,67.4,57.2,30.17,ESE,112,3.0,10.0,70,0.00,,,0.00,Weather View 32 v70,2013-11-15 01:05:00,
2013-11-14 20:10:00,67.4,57.2,30.18,ESE,107,3.0,10.0,70,0.00,,,0.00,Weather View 32 v70,2013-11-15 01:10:00,
2013-11-14 20:15:00,67.3,57.2,30.17,ESE,114,1.0,10.0,70,0.00,,,0.00,Weather View 32 v70,2013-11-15 01:15:00,
2013-11-14 20:20:00,67.2,57.4,30.17,East,94,2.0,10.0,71,0.00,,,0.00,Weather View 32 v70,2013-11-15 01:20:00,
2013-11-14 20:25:00,67.1,57.4,30.18,East,94,0.0,10.0,71,0.00,,,0.00,Weather View 32 v70,2013-11-15 01:25:00,
2013-11-14 20:30:00,66.9,57.6,30.17,ESE,107,5.0,8.0,72,0.00,,,0.00,Weather View 32 v70,2013-11-15 01:30:00,
2013-11-14 20:35:00,66.8,57.5,30.17,ESE,103,0.0,8.0,72,0.00,,,0.00,Weather View 32 v70,2013-11-15 01:35:00,
2013-11-14 20:40:00,66.7,57.7,30.17,East,94,3.0,8.0,73,0.00,,,0.00,Weather View 32 v70,2013-11-15 01:40:00,
2013-11-14 20:45:00,66.6,57.6,30.17,SE,136,1.0,8.0,73,0.00,,,0.00,Weather View 32 v70,2013-11-15 01:45:00,
2013-11-14 20:50:00,66.5,57.6,30.17,SE,126,0.0,8.0,73,0.00,,,0.00,Weather View 32 v70,2013-11-15 01:50:00,
2013-11-14 20:55:00,66.4,57.8,30.17,East,101,3.0,8.0,74,0.00,,,0.00,Weather View 32 v70,2013-11-15 01:55:00,
2013-11-14 21:00:00,66.4,57.8,30.17,East,82,0.0,8.0,74,0.00,,,0.00,Weather View 32 v70,2013-11-15 02:00:00,
2013-11-14 21:05:00,66.4,58.2,30.17,East,88,1.0,8.0,75,0.00,,,0.00,Weather View 32 v70,2013-11-15 02:05:00,
2013-11-14 21:10:00,66.3,58.1,30.17,East,101,2.0,7.0,75,0.00,,,0.00,Weather View 32 v70,2013-11-15 02:10:00,
2013-11-14 21:15:00,66.3,58.5,30.18,ESE,123,2.0,7.0,76,0.00,,,0.00,Weather View 32 v70,2013-11-15 02:15:00,
2013-11-14 21:20:00,66.3,58.5,30.18,East,96,2.0,8.0,76,0.00,,,0.00,Weather View 32 v70,2013-11-15 02:20:00,
2013-11-14 21:25:00,66.3,58.5,30.18,ESE,119,0.0,8.0,76,0.00,,,0.00,Weather View 32 v70,2013-11-15 02:25:00,
2013-11-14 21:30:00,66.3,58.5,30.18,ESE,119,0.0,8.0,76,0.00,,,0.00,Weather View 32 v70,2013-11-15 02:30:00,
2013-11-14 21:35:00,66.2,58.4,30.18,ESE,115,4.0,8.0,76,0.00,,,0.00,Weather View 32 v70,2013-11-15 02:35:00,
2013-11-14 21:40:00,66.1,58.7,30.18,East,100,0.0,8.0,77,0.00,,,0.00,Weather View 32 v70,2013-11-15 02:40:00,
2013-11-14 21:45:00,66.0,58.6,30.18,East,94,0.0,8.0,77,0.00,,,0.00,Weather View 32 v70,2013-11-15 02:45:00,
2013-11-14 21:50:00,65.9,58.5,30.18,East,94,0.0,8.0,77,0.00,,,0.00,Weather View 32 v70,2013-11-15 02:50:00,
2013-11-14 21:55:00,65.9,58.8,30.18,East,94,0.0,8.0,78,0.00,,,0.00,Weather View 32 v70,2013-11-15 02:55:00,
2013-11-14 22:01:00,65.8,58.7,30.18,East,94,0.0,8.0,78,0.00,,,0.00,Weather View 32 v70,2013-11-15 03:01:00,
2013-11-14 22:06:00,65.8,58.7,30.18,NE,55,0.0,8.0,78,0.00,,,0.00,Weather View 32 v70,2013-11-15 03:06:00,
2013-11-14 22:11:00,65.8,58.7,30.18,NE,55,0.0,8.0,78,0.00,,,0.00,Weather View 32 v70,2013-11-15 03:11:00,
2013-11-14 22:16:00,65.8,58.7,30.18,NE,55,0.0,8.0,78,0.00,,,0.00,Weather View 32 v70,2013-11-15 03:16:00,
2013-11-14 22:21:00,65.7,58.6,30.18,East,82,0.0,6.0,78,0.00,,,0.00,Weather View 32 v70,2013-11-15 03:21:00,
2013-11-14 22:26:00,65.7,58.6,30.19,East,82,3.0,6.0,78,0.00,,,0.00,Weather View 32 v70,2013-11-15 03:26:00,
2013-11-14 22:31:00,65.6,58.9,30.18,East,80,0.0,6.0,79,0.00,,,0.00,Weather View 32 v70,2013-11-15 03:31:00,
2013-11-14 22:36:00,65.6,58.9,30.18,ENE,78,0.0,6.0,79,0.00,,,0.00,Weather View 32 v70,2013-11-15 03:36:00,
2013-11-14 22:41:00,65.6,58.9,30.18,ENE,76,0.0,6.0,79,0.00,,,0.00,Weather View 32 v70,2013-11-15 03:41:00,
2013-11-14 22:46:00,65.6,58.9,30.17,East,87,0.0,7.0,79,0.00,,,0.00,Weather View 32 v70,2013-11-15 03:46:00,
2013-11-14 22:51:00,65.5,58.8,30.17,East,88,3.0,7.0,79,0.00,,,0.00,Weather View 32 v70,2013-11-15 03:51:00,
2013-11-14 22:56:00,65.4,59.0,30.17,East,88,0.0,7.0,80,0.00,,,0.00,Weather View 32 v70,2013-11-15 03:56:00,
2013-11-14 23:01:00,65.3,59.0,30.17,East,88,0.0,7.0,80,0.00,,,0.00,Weather View 32 v70,2013-11-15 04:01:00,
2013-11-14 23:06:00,65.2,58.9,30.17,East,88,0.0,7.0,80,0.00,,,0.00,Weather View 32 v70,2013-11-15 04:06:00,
2013-11-14 23:11:00,65.1,58.8,30.16,ENE,76,2.0,7.0,80,0.00,,,0.00,Weather View 32 v70,2013-11-15 04:11:00,
2013-11-14 23:16:00,65.0,59.0,30.16,East,80,1.0,7.0,81,0.00,,,0.00,Weather View 32 v70,2013-11-15 04:16:00,
2013-11-14 23:21:00,64.9,58.9,30.17,East,82,2.0,7.0,81,0.00,,,0.00,Weather View 32 v70,2013-11-15 04:21:00,
2013-11-14 23:26:00,64.8,58.8,30.17,East,84,0.0,7.0,81,0.00,,,0.00,Weather View 32 v70,2013-11-15 04:26:00,
2013-11-14 23:31:00,64.8,58.8,30.16,ENE,78,0.0,7.0,81,0.00,,,0.00,Weather View 32 v70,2013-11-15 04:31:00,
2013-11-14 23:36:00,64.7,59.1,30.16,ENE,78,0.0,7.0,82,0.00,,,0.00,Weather View 32 v70,2013-11-15 04:36:00,
2013-11-14 23:41:00,64.6,59.0,30.16,East,90,0.0,7.0,82,0.00,,,0.00,Weather View 32 v70,2013-11-15 04:41:00,
2013-11-14 23:46:00,64.6,59.0,30.16,East,89,7.0,7.0,82,0.00,,,0.00,Weather View 32 v70,2013-11-15 04:46:00,
2013-11-14 23:51:00,64.5,58.9,30.15,ENE,71,0.0,7.0,82,0.00,,,0.00,Weather View 32 v70,2013-11-15 04:51:00,
2013-11-14 23:56:00,64.5,59.2,30.15,NE,34,0.0,7.0,83,0.00,,,0.00,Weather View 32 v70,2013-11-15 04:56:00,